Regional Weather Roundup
Issued by NWS Albany, NY

Home | Current Version | Previous Version | Text Only | Print | Product List | Glossary On
Versions: 1 2 3 4 5 6 7 8 9 10 11 12 13 14 15 16 17 18 19 20 21 22 23 24 25 26 27 28 29 30 31 32 33 34 35 36 37 38 39 40 41 42 43 44 45 46 47 48 49 50
000
ASUS41 KALY 201610
RWRALY

NEW YORK STATE HOURLY WEATHER ROUNDUP
NATIONAL WEATHER SERVICE ALBANY NY
1200 PM EDT SAT SEP 20 2014

NOTE: "FAIR" INDICATES FEW OR NO CLOUDS BELOW 12,000 FEET WITH NO
SIGNIFICANT WEATHER AND/OR NO OBSTRUCTIONS TO VISIBILITY.

NYZ032-033-038>043-046>054-057>066-NYZ062>081-201700-
EAST


CITY           SKY/WX    TMP DP  RH WIND       PRES   REMARKS
ALBANY         PTSUNNY   69  54  58 S15G25    30.17F
GLENS FALLS    CLOUDY    63  53  70 S9        30.16F
POUGHKEEPSIE   CLOUDY    69  56  62 S8        30.24F
NEWBURGH       CLOUDY    68  57  68 MISG      30.26F
MONTGOMERY     CLOUDY    70  56  61 S9        30.24F
WHITE PLAINS   PTSUNNY   70  55  59 S13       30.26F
ISLIP          MOSUNNY   71  56  58 S13       30.26F
NEW YORK CITY  PTSUNNY   72  56  57 SE13G20   30.25F
CENTRAL PARK   PTSUNNY   71  55  56 VRB6      30.28F
$$

NYZ005>009-017-018-044>046-055-056-201700-
CENTRAL


CITY           SKY/WX    TMP DP  RH WIND       PRES   REMARKS
FULTON         CLOUDY    69  58  67 S18G25    30.06F
SYRACUSE       CLOUDY    71  57  61 S22G31    30.08S
ROME           CLOUDY    67  57  70 SW12G21   30.12F
ELMIRA         CLOUDY    69  59  70 S15       30.12F
BINGHAMTON     CLOUDY    62  56  80 S12G24    30.17F
MONTICELLO     CLOUDY    63  57  82 S7        30.25F
$$

NYZ026>034-041>043-201700-
NORTH


CITY           SKY/WX    TMP DP  RH WIND       PRES   REMARKS
WATERTOWN      CLOUDY    70  56  61 S17G25    30.01F
FORT DRUM      NOT AVBL
MASSENA        PTSUNNY   69  57  65 SW20G36   29.98F
SARANAC LAKE   CLOUDY    60  53  77 SW20G26   30.05F
PLATTSBURGH    CLOUDY    61  51  70 SE21G29   30.04F
$$

NYZ001>004-010>016-019>021-201700-
WEST


CITY           SKY/WX    TMP DP  RH WIND       PRES   REMARKS
NIAGARA FALLS  PTSUNNY   72  58  61 SW24G32   29.98F
BUFFALO        PTSUNNY   73  57  57 SW22G35   30.00F
DUNKIRK        MOSUNNY   73  60  63 SW12G28   30.03F
JAMESTOWN      CLOUDY    64  57  77 S9G17     30.09F
WELLSVILLE     CLOUDY    63  55  75 S12G20    30.14S
ROCHESTER      PTSUNNY   73  58  59 SW15G24   30.02F
PENN YAN       CLOUDY    67  57  70 S15G22    30.09F
$$

             KEY
       WCI = WIND CHILL INDEX
       VSB = VISIBILITY
       HX  = HEAT INDEX
$$



USA.gov is the U.S. government's official web portal to all federal, state and local government web resources and services.